Starlink 33545

operational
NORAD ID: 62101 Int'l Des: 2024-220 Owner: SPXS Country: US Constellation: starlink
LEOCIRCULAR

About Starlink 33545

Description loading...

Live Position

Loading 3D Globe...

Upcoming Passes

Altitude History

Altitude vs Time

uPlot chart will show altitude changes over time

Two-Line Element Set

1 62101U 24220P 25351.88814324 .00023491 00000-0 86018-3 0 9999
2 62101 42.9962 307.2659 0000710 312.5786 47.5005 15.27589995 60519
Epoch: Dec 17, 2025 • Age: 9 hours

Current Status

Altitude 494.1 km
Velocity 7.62 km/s
Sub-Earth Point -38.30°S, 2°E
Launch Date Nov 25, 2024
Age 1 years
Type internet

Technical Details

Classification Payload
Mass 530.00 kg
Dry Mass 500.00 kg
Total Mass 530.00 kg
Length 0.30 m
Diameter 4.10 m
Span 29.00 m
Shape Box + pan
Manufacturer SPXS
Bus Type Starlink V2MO
Phase Status In Orbit
Owner/State SPXS/US

Large Constellations

Loading constellations...